Starlink 31313

operational
NORAD ID: 59088 Int'l Des: 2024-041 Owner: SPXS Country: US Constellation: starlink
LEOCIRCULAR

Über Starlink 31313

Beschreibung wird geladen...

Live-Position

3D-Globus wird geladen...

Nächste Überflüge

Höhenverlauf

Altitude vs Time

uPlot chart will show altitude changes over time

Zweizeiliger Elementsatz

1 59088U 24041Q 25352.22241484 -.00000983 00000-0 -26210-4 0 9992
2 59088 43.0025 50.6587 0001022 262.9453 97.1283 15.27581288101811
Epoch: 18. Dez. 2025 • Age: 15 hours

Aktueller Status

Höhe 483.3 km
Geschwindigkeit 7.63 km/s
Subsatellitenpunkt 24.81°N, 168.76°E
Startdatum 29. Feb. 2024
Alter 1.8 years
Typ internet

Technische Details

Klassifizierung Payload
Masse 730.00 kg
Trockenmasse 700.00 kg
Gesamtmasse 730.00 kg
Länge 0.30 m
Durchmesser 4.10 m
Spannweite 29.00 m
Form Box + pan
Hersteller SPXS
Bus-Typ Starlink V2M
Phasenstatus In Orbit
Besitzer/Staat SPXS/US

Große Konstellationen

Loading constellations...